EW1015 Weather Reports


Display with metric or nautical units.
time (UTC)temp
F
wind
direction
speed
MPH
gust
MPH
rain 1hr
in
rain 24hr
in
rain mn
in
humidity
%
barometer
mb
20260508180053 51 250 8.0 13.0 0.00 0.02 0.02 59 1013.6
20260508174548 51 12 5.0 15.0 0.00 0.02 0.02 58 1013.7
20260508173048 50 266 8.0 14.0 0.00 0.02 0.02 59 1013.9
20260508171542 50 281 7.0 14.0 0.00 0.02 0.02 57 1014.1
20260508170040 48 271 3.0 10.0 0.00 0.02 0.02 52 1014.1
20260508164533 49 296 8.0 13.0 0.00 0.02 0.02 54 1014.3
20260508163028 47 257 9.0 13.0 0.00 0.02 0.02 41 1014.6
20260508161523 46 268 4.0 11.0 0.00 0.02 0.02 36 1014.7
20260508160021 47 221 7.0 13.0 0.00 0.02 0.02 14 1014.8
20260508154515 45 234 2.0 10.0 0.00 0.02 0.02 8 1014.7
20260508153010 45 267 5.0 11.0 0.00 0.02 0.02 11 1014.7
20260508151511 45 286 4.0 8.0 0.00 0.02 0.02 1 1014.6
20260508150105 44 239 4.0 9.0 0.00 0.02 0.02 1 1014.8
20260508144622 43 288 2.0 8.0 0.00 0.02 0.02 1 1014.8
20260508143106 43 267 3.0 7.0 0.00 0.02 0.02 1 1014.8
20260508141555 42 261 3.0 9.0 0.00 0.02 0.02 1 1014.6
20260508140049 42 295 3.0 8.0 0.01 0.02 0.02 1 1014.8
20260508134542 42 292 4.0 8.0 0.01 0.02 0.02 1 1014.7
20260508133104 42 283 3.0 9.0 0.02 0.02 0.02 1 1014.7
20260508131531 41 276 2.0 7.0 0.02 0.02 0.02 1 1014.8
20260508130027 41 284 5.0 7.0 0.01 0.01 0.01 1 1014.7
20260508124522 42 300 5.0 14.0 0.01 0.01 0.01 1 1014.8
20260508123019 42 299 4.0 8.0 0.00 0.00 0.00 1 1014.2
20260508121514 43 298 5.0 12.0 0.00 0.00 0.00 2 1014.0
20260508120010 44 273 2.0 6.0 0.00 0.00 0.00 1 1013.6
20260508114508 44 217 0.0 2.0 0.00 0.00 0.00 1 1013.4
20260508113001 43 277 1.0 4.0 0.00 0.00 0.00 1 1013.2
20260508111607 43 182 1.0 4.0 0.00 0.00 0.00 1 1013.2
20260508110058 42 201 0.0 1.0 0.00 0.00 0.00 1 1013.2
20260508104548 42 171 0.0 2.0 0.00 0.00 0.00 1 1012.7
20260508103055 42 171 0.0 2.0 0.00 0.00 0.00 1 1013.0
20260508101541 41 194 0.0 2.0 0.00 0.00 0.00 1 1013.3
20260508100035 41 194 0.0 1.0 0.00 0.00 0.00 1 1013.4
20260508094530 40 190 0.0 2.0 0.00 0.00 0.00 1 1013.6
20260508093029 39 180 0.0 1.0 0.00 0.00 0.00 1 1013.6
20260508091522 38 180 0.0 1.0 0.00 0.00 0.00 1 1013.5
20260508090024 38 180 0.0 1.0 0.00 0.00 0.00 1 1013.5
20260508084513 37 51 0.0 2.0 0.00 0.00 0.00 1 1013.5
20260508083009 37 138 0.0 0.0 0.00 0.00 0.00 1 1013.3
20260508081505 37 138 0.0 1.0 0.00 0.00 0.00 1 1013.3
20260508080100 37 121 1.0 2.0 0.00 0.00 0.00 1 1013.2
20260508074556 37 56 0.0 2.0 0.00 0.00 0.00 1 1013.2
20260508073103 38 319 0.0 2.0 0.00 0.00 0.00 1 1013.1
20260508071555 38 319 0.0 0.0 0.00 0.00 0.00 1 1013.4
20260508070043 40 319 0.0 1.0 0.00 0.00 0.00 1 1013.2
20260508064539 40 319 0.0 2.0 0.00 0.00 0.00 1 1013.4
20260508063033 41 288 0.0 3.0 0.00 0.00 0.00 1 1013.4
20260508061529 42 273 1.0 3.0 0.00 0.00 0.00 1 1013.6
20260508060024 43 280 0.0 3.0 0.00 0.00 0.00 1 1013.5
20260508054520 43 292 1.0 5.0 0.00 0.00 0.00 1 1013.6
20260508053031 43 327 2.0 6.0 0.00 0.00 0.00 1 1013.6
20260508051511 43 329 1.0 5.0 0.00 0.00 0.00 1 1013.7
20260508050005 43 317 4.0 7.0 0.00 0.00 0.00 1 1013.6
20260508044503 43 302 1.0 4.0 0.00 0.00 0.00 1 1013.5
20260508043104 43 300 1.0 3.0 0.00 0.00 0.00 1 1013.5
20260508041615 43 288 1.0 4.0 0.00 0.00 0.00 1 1013.5
20260508040106 42 221 0.0 2.0 0.00 0.00 0.00 1 1013.3
20260508034544 42 221 0.0 2.0 0.00 0.00 0.00 1 1013.2
20260508033041 42 221 0.0 1.0 0.00 0.00 0.00 1 1013.2
20260508031539 42 221 1.0 2.0 0.00 0.00 0.00 1 1013.1
20260508030035 42 259 0.0 3.0 0.00 0.00 0.00 1 1013.1
20260508024530 42 209 0.0 1.0 0.00 0.00 0.00 1 1013.3
20260508023023 41 209 0.0 3.0 0.00 0.00 0.00 1 1013.1
20260508021520 40 182 0.0 1.0 0.00 0.00 0.00 1 1012.9
20260508020023 40 176 1.0 3.0 0.00 0.00 0.00 1 1012.8
20260508014510 40 51 0.0 2.0 0.00 0.00 0.00 1 1012.4
20260508013006 40 60 2.0 3.0 0.00 0.00 0.00 17 1012.3
20260508011506 42 90 0.0 2.0 0.00 0.00 0.00 47 1012.4
20260508010058 43 73 0.0 2.0 0.00 0.00 0.00 53 1012.3
20260508004557 43 17 0.0 1.0 0.00 0.01 0.00 52 1012.2
20260508003048 45 17 0.0 1.0 0.00 0.01 0.00 58 1012.1
20260508001548 45 12 0.0 3.0 0.00 0.01 0.00 59 1012.0
20260508000039 46 17 1.0 3.0 0.00 0.01 0.00 59 1011.9
20260507234535 47 355 1.0 4.0 0.00 0.01 0.00 59 1011.8
20260507233051 47 351 1.0 8.0 0.00 0.01 0.00 59 1011.7
20260507231531 48 22 1.0 5.0 0.00 0.01 0.00 59 1011.7
20260507230021 48 355 2.0 8.0 0.00 0.01 0.00 57 1011.6
20260507224522 49 11 3.0 9.0 0.00 0.01 0.00 59 1011.6
20260507223016 49 5 6.0 10.0 0.00 0.01 0.00 59 1011.5
20260507221520 50 360 5.0 9.0 0.00 0.01 0.00 59 1011.5
20260507220010 50 29 3.0 9.0 0.00 0.01 0.00 58 1011.5
20260507214505 50 333 3.0 8.0 0.00 0.01 0.00 59 1011.4
20260507213005 51 355 6.0 13.0 0.00 0.01 0.00 58 1011.4
20260507211558 51 336 3.0 10.0 0.00 0.01 0.00 59 1011.5
20260507210054 52 35 4.0 9.0 0.00 0.01 0.00 58 1011.4
20260507204548 53 13 3.0 9.0 0.00 0.01 0.00 59 1011.4
20260507203046 51 35 4.0 11.0 0.00 0.01 0.00 59 1011.6
20260507201540 51 336 5.0 11.0 0.00 0.01 0.00 58 1011.5
20260507200034 52 31 4.0 10.0 0.00 0.01 0.00 58 1011.5
20260507194554 52 23 4.0 9.0 0.00 0.01 0.00 59 1011.7
20260507193029 53 11 5.0 10.0 0.00 0.01 0.00 55 1011.7
20260507191530 52 255 3.0 10.0 0.00 0.01 0.00 55 1011.8
20260507190021 52 300 7.0 11.0 0.00 0.01 0.00 56 1012.1
20260507184514 51 5 3.0 9.0 0.00 0.01 0.00 55 1012.1
20260507183015 52 286 6.0 10.0 0.00 0.01 0.00 54 1012.3